Year,Month,Day,Hour,Minute,Value (Times are PST for windspeed in km/hr)
2018,04,09,00,00,9.40
2018,04,09,00,01,15.50
2018,04,09,00,02,9.20
2018,04,09,00,03,10.70
2018,04,09,00,04,11.30
2018,04,09,00,05,15.50
2018,04,09,00,06,12.90
2018,04,09,00,07,12.00
2018,04,09,00,08,9.90
2018,04,09,00,09,12.30
2018,04,09,00,10,15.40
2018,04,09,00,11,12.90
2018,04,09,00,12,11.80
2018,04,09,00,13,12.50
2018,04,09,00,14,7.50
2018,04,09,00,15,10.50
2018,04,09,00,16,10.50
2018,04,09,00,17,11.50
2018,04,09,00,18,11.40
2018,04,09,00,19,14.50
2018,04,09,00,20,11.60
2018,04,09,00,21,8.00
2018,04,09,00,22,10.30
2018,04,09,00,23,11.70
2018,04,09,00,24,7.50
2018,04,09,00,25,8.80
2018,04,09,00,26,11.70
2018,04,09,00,27,9.50
2018,04,09,00,28,10.70
2018,04,09,00,29,11.70
2018,04,09,00,30,16.60
2018,04,09,00,31,13.40
2018,04,09,00,32,19.60
2018,04,09,00,33,16.10
2018,04,09,00,34,11.30
2018,04,09,00,35,10.60
2018,04,09,00,36,17.90
2018,04,09,00,37,15.50
2018,04,09,00,38,16.60
2018,04,09,00,39,11.20
2018,04,09,00,40,11.30
2018,04,09,00,41,9.50
2018,04,09,00,42,9.50
2018,04,09,00,43,13.10
2018,04,09,00,44,18.60
2018,04,09,00,45,14.40
2018,04,09,00,46,13.20
2018,04,09,00,47,13.60
2018,04,09,00,48,11.40
2018,04,09,00,49,12.40
2018,04,09,00,50,19.10
2018,04,09,00,51,18.00
2018,04,09,00,52,15.50
2018,04,09,00,53,17.00
2018,04,09,00,54,19.40
2018,04,09,00,55,14.70
2018,04,09,00,56,13.70
2018,04,09,00,57,11.00
2018,04,09,00,58,8.50
2018,04,09,00,59,9.90
2018,04,09,01,00,15.10
2018,04,09,01,01,12.50
2018,04,09,01,02,11.60
2018,04,09,01,03,11.70
2018,04,09,01,04,7.90
2018,04,09,01,05,12.60
2018,04,09,01,06,13.30
2018,04,09,01,07,12.40
2018,04,09,01,08,12.70
2018,04,09,01,09,8.70
2018,04,09,01,10,8.00
2018,04,09,01,11,11.90
2018,04,09,01,12,10.90
2018,04,09,01,13,10.70
2018,04,09,01,14,10.70
2018,04,09,01,15,11.90
2018,04,09,01,16,9.40
2018,04,09,01,17,12.90
2018,04,09,01,18,13.60
2018,04,09,01,19,14.70
2018,04,09,01,20,5.80
2018,04,09,01,21,7.70
2018,04,09,01,22,10.60
2018,04,09,01,23,11.10
2018,04,09,01,24,10.80
2018,04,09,01,25,7.90
2018,04,09,01,26,12.90
2018,04,09,01,27,10.60
2018,04,09,01,28,9.70
2018,04,09,01,29,10.70
2018,04,09,01,30,12.60
2018,04,09,01,31,14.70
2018,04,09,01,32,9.30
2018,04,09,01,33,11.20
2018,04,09,01,34,10.60
2018,04,09,01,35,10.90
2018,04,09,01,36,9.50
2018,04,09,01,37,12.60
2018,04,09,01,38,15.40
2018,04,09,01,39,12.00
2018,04,09,01,40,10.90
2018,04,09,01,41,9.20
2018,04,09,01,42,12.40
2018,04,09,01,43,16.30
2018,04,09,01,44,17.50
2018,04,09,01,45,13.80
2018,04,09,01,46,12.20
2018,04,09,01,47,13.50
2018,04,09,01,48,10.10
2018,04,09,01,49,15.80
2018,04,09,01,50,13.90
2018,04,09,01,51,6.30
2018,04,09,01,52,8.10
2018,04,09,01,53,10.50
2018,04,09,01,54,14.10
2018,04,09,01,55,11.90
2018,04,09,01,56,11.20
2018,04,09,01,57,8.60
2018,04,09,01,58,12.60
2018,04,09,01,59,5.50
2018,04,09,02,00,9.20
2018,04,09,02,01,7.30
2018,04,09,02,02,8.10
2018,04,09,02,03,3.30
2018,04,09,02,04,3.20
2018,04,09,02,05,4.80
2018,04,09,02,06,9.70
2018,04,09,02,07,11.80
2018,04,09,02,08,14.50
2018,04,09,02,09,16.10
2018,04,09,02,10,16.20
2018,04,09,02,11,12.70
2018,04,09,02,12,10.80
2018,04,09,02,13,9.50
2018,04,09,02,14,10.10
2018,04,09,02,15,11.40
2018,04,09,02,16,8.60
2018,04,09,02,17,9.80
2018,04,09,02,18,6.70
2018,04,09,02,19,14.50
2018,04,09,02,20,9.60
2018,04,09,02,21,6.00
2018,04,09,02,22,6.10
2018,04,09,02,23,8.20
2018,04,09,02,24,8.50
2018,04,09,02,25,5.50
2018,04,09,02,26,11.30
2018,04,09,02,27,10.30
2018,04,09,02,28,12.80
2018,04,09,02,29,8.10
2018,04,09,02,30,6.10
2018,04,09,02,31,5.40
2018,04,09,02,32,9.20
2018,04,09,02,33,7.90
2018,04,09,02,34,6.20
2018,04,09,02,35,5.80
2018,04,09,02,36,4.10
2018,04,09,02,37,2.60
2018,04,09,02,38,3.30
2018,04,09,02,39,2.50
2018,04,09,02,40,4.40
2018,04,09,02,41,3.50
2018,04,09,02,42,0.10
2018,04,09,02,43,0.00
2018,04,09,02,44,1.10
2018,04,09,02,45,1.80
2018,04,09,02,46,2.10
2018,04,09,02,47,2.90
2018,04,09,02,48,1.20
2018,04,09,02,49,0.20
2018,04,09,02,50,1.70
2018,04,09,02,51,0.10
2018,04,09,02,52,0.10
2018,04,09,02,53,0.60
2018,04,09,02,54,1.60
2018,04,09,02,55,0.20
2018,04,09,02,56,0.00
2018,04,09,02,57,1.10
2018,04,09,02,58,0.50
2018,04,09,02,59,0.50
2018,04,09,03,00,1.90
2018,04,09,03,01,2.40
2018,04,09,03,02,0.50
2018,04,09,03,03,1.60
2018,04,09,03,04,1.70
2018,04,09,03,05,0.30
2018,04,09,03,06,2.60
2018,04,09,03,07,3.40
2018,04,09,03,08,0.80
2018,04,09,03,09,0.00
2018,04,09,03,10,0.20
2018,04,09,03,11,3.50
2018,04,09,03,12,4.70
2018,04,09,03,13,1.30
2018,04,09,03,14,0.00
2018,04,09,03,15,0.00
2018,04,09,03,16,0.00
2018,04,09,03,17,0.00
2018,04,09,03,18,0.00
2018,04,09,03,19,0.00
2018,04,09,03,20,0.00
2018,04,09,03,21,0.00
2018,04,09,03,22,0.00
2018,04,09,03,23,0.00
2018,04,09,03,24,0.00
2018,04,09,03,25,0.00
2018,04,09,03,26,0.00
2018,04,09,03,27,0.20
2018,04,09,03,28,0.90
2018,04,09,03,29,1.60
2018,04,09,03,30,0.10
2018,04,09,03,31,0.50
2018,04,09,03,32,1.50
2018,04,09,03,33,1.60
2018,04,09,03,34,1.20
2018,04,09,03,35,0.30
2018,04,09,03,36,0.70
2018,04,09,03,37,1.60
2018,04,09,03,38,0.20
2018,04,09,03,39,1.10
2018,04,09,03,40,0.70
2018,04,09,03,41,2.30
2018,04,09,03,42,1.90
2018,04,09,03,43,1.30
2018,04,09,03,44,2.10
2018,04,09,03,45,1.60
2018,04,09,03,46,0.60
2018,04,09,03,47,2.80
2018,04,09,03,48,3.20
2018,04,09,03,49,1.90
2018,04,09,03,50,2.30
2018,04,09,03,51,2.60
2018,04,09,03,52,4.20
2018,04,09,03,53,2.20
2018,04,09,03,54,3.50
2018,04,09,03,55,3.30
2018,04,09,03,56,5.00
2018,04,09,03,57,6.40
2018,04,09,03,58,5.00
2018,04,09,03,59,3.60
2018,04,09,04,00,3.90
2018,04,09,04,01,3.70
2018,04,09,04,02,2.40
2018,04,09,04,03,0.10
2018,04,09,04,04,3.60
2018,04,09,04,05,2.70
2018,04,09,04,06,6.40
2018,04,09,04,07,4.10
2018,04,09,04,08,3.00
2018,04,09,04,09,2.60
2018,04,09,04,10,0.90
2018,04,09,04,11,2.10
2018,04,09,04,12,0.50
2018,04,09,04,13,2.10
2018,04,09,04,14,0.40
2018,04,09,04,15,0.10
2018,04,09,04,16,2.90
2018,04,09,04,17,2.00
2018,04,09,04,18,1.80
2018,04,09,04,19,2.00
2018,04,09,04,20,2.50
2018,04,09,04,21,1.30
2018,04,09,04,22,2.60
2018,04,09,04,23,1.30
2018,04,09,04,24,2.20
2018,04,09,04,25,2.70
2018,04,09,04,26,1.80
2018,04,09,04,27,2.10
2018,04,09,04,28,2.20
2018,04,09,04,29,4.10
2018,04,09,04,30,2.70
2018,04,09,04,31,0.80
2018,04,09,04,32,1.20
2018,04,09,04,33,1.00
2018,04,09,04,34,2.70
2018,04,09,04,35,2.80
2018,04,09,04,36,3.00
2018,04,09,04,37,3.70
2018,04,09,04,38,4.00
2018,04,09,04,39,3.30
2018,04,09,04,40,5.70
2018,04,09,04,41,3.10
2018,04,09,04,42,1.70
2018,04,09,04,43,3.40
2018,04,09,04,44,3.80
2018,04,09,04,45,3.10
2018,04,09,04,46,5.50
2018,04,09,04,47,6.40
2018,04,09,04,48,4.80
2018,04,09,04,49,5.70
2018,04,09,04,50,7.70
2018,04,09,04,51,6.90
2018,04,09,04,52,6.20
2018,04,09,04,53,4.20
2018,04,09,04,54,4.30
2018,04,09,04,55,4.90
2018,04,09,04,56,3.20
2018,04,09,04,57,1.60
2018,04,09,04,58,4.10
2018,04,09,04,59,3.80
2018,04,09,05,00,3.30
2018,04,09,05,01,2.00
2018,04,09,05,02,3.20
2018,04,09,05,03,4.10
2018,04,09,05,04,0.40
2018,04,09,05,05,1.40
2018,04,09,05,06,2.70
2018,04,09,05,07,0.30
2018,04,09,05,08,1.70
2018,04,09,05,09,1.00
2018,04,09,05,10,1.00
2018,04,09,05,11,0.40
2018,04,09,05,12,1.10
2018,04,09,05,13,1.80
2018,04,09,05,14,0.50
2018,04,09,05,15,1.40
2018,04,09,05,16,0.90
2018,04,09,05,17,0.40
2018,04,09,05,18,1.30
2018,04,09,05,19,0.10
2018,04,09,05,20,0.00
2018,04,09,05,21,0.10
2018,04,09,05,22,1.70
2018,04,09,05,23,0.70
2018,04,09,05,24,0.00
2018,04,09,05,25,0.90
2018,04,09,05,26,6.00
2018,04,09,05,27,5.10
2018,04,09,05,28,2.70
2018,04,09,05,29,3.50
2018,04,09,05,30,2.40
2018,04,09,05,31,4.50
2018,04,09,05,32,3.50
2018,04,09,05,33,2.90
2018,04,09,05,34,2.30
2018,04,09,05,35,2.90
2018,04,09,05,36,3.20
2018,04,09,05,37,3.90
2018,04,09,05,38,1.10
2018,04,09,05,39,1.60
2018,04,09,05,40,1.60
2018,04,09,05,41,1.60
2018,04,09,05,42,1.60
2018,04,09,05,43,1.60
2018,04,09,05,44,1.60
2018,04,09,05,45,1.60
2018,04,09,05,46,1.60
2018,04,09,05,47,1.60
2018,04,09,05,48,1.60
2018,04,09,08,04,1.90
2018,04,09,08,05,2.70
2018,04,09,08,06,0.40
2018,04,09,08,07,0.00
2018,04,09,08,08,0.00
2018,04,09,08,09,0.00
2018,04,09,08,10,0.40
2018,04,09,08,11,0.00
2018,04,09,08,12,0.00
2018,04,09,08,13,0.20
2018,04,09,08,14,1.50
2018,04,09,08,15,4.50
2018,04,09,08,16,1.10
2018,04,09,08,17,5.30
2018,04,09,08,18,5.00
2018,04,09,08,19,6.30
2018,04,09,08,20,3.80
2018,04,09,08,21,2.50
2018,04,09,08,22,4.10
2018,04,09,08,23,2.60
2018,04,09,08,24,2.30
2018,04,09,08,25,2.60
2018,04,09,08,26,0.80
2018,04,09,08,27,4.90
2018,04,09,08,28,1.30
2018,04,09,08,29,0.70
2018,04,09,08,30,0.50
2018,04,09,08,31,2.90
2018,04,09,08,32,1.70
2018,04,09,08,33,5.30
2018,04,09,08,34,1.60
2018,04,09,08,35,1.00
2018,04,09,08,36,2.90
2018,04,09,08,37,2.10
2018,04,09,08,38,3.30
2018,04,09,08,39,3.80
2018,04,09,08,40,2.80
2018,04,09,08,41,3.00
2018,04,09,08,42,1.70
2018,04,09,08,43,6.10
2018,04,09,08,44,2.10
2018,04,09,08,45,4.10
2018,04,09,08,46,6.30
2018,04,09,08,47,8.20
2018,04,09,08,48,7.60
2018,04,09,08,49,5.70
2018,04,09,08,50,4.20
2018,04,09,08,51,1.10
2018,04,09,08,52,5.50
2018,04,09,08,53,2.70
2018,04,09,08,54,4.80
2018,04,09,08,55,7.10
2018,04,09,08,56,5.50
2018,04,09,08,57,5.20
2018,04,09,08,58,8.90
2018,04,09,08,59,9.10
2018,04,09,09,00,5.90
2018,04,09,09,01,4.10
2018,04,09,09,02,4.90
2018,04,09,09,03,5.10
2018,04,09,09,04,3.20
2018,04,09,09,05,3.00
2018,04,09,09,06,3.40
2018,04,09,09,07,3.80
2018,04,09,09,08,4.50
2018,04,09,09,09,7.70
2018,04,09,09,10,2.80
2018,04,09,09,11,1.10
2018,04,09,09,12,6.40
2018,04,09,09,13,11.40
2018,04,09,09,14,6.40
2018,04,09,09,15,6.30
2018,04,09,09,16,4.00
2018,04,09,09,17,4.60
2018,04,09,09,18,3.10
2018,04,09,09,19,2.30
2018,04,09,09,20,5.30
2018,04,09,09,21,4.50
2018,04,09,09,22,4.60
2018,04,09,09,23,5.20
2018,04,09,09,24,1.80
2018,04,09,09,25,3.00
2018,04,09,09,26,2.00
2018,04,09,09,27,3.50
2018,04,09,09,28,4.50
2018,04,09,09,29,5.00
2018,04,09,09,30,2.30
2018,04,09,09,31,1.10
2018,04,09,09,32,1.80
2018,04,09,09,33,3.30
2018,04,09,09,34,2.20
2018,04,09,09,35,1.70
2018,04,09,09,36,7.00
2018,04,09,09,37,4.90
2018,04,09,09,38,5.40
2018,04,09,09,39,6.00
2018,04,09,09,40,1.70
2018,04,09,09,41,6.00
2018,04,09,09,42,4.20
2018,04,09,09,43,4.70
2018,04,09,09,44,1.70
2018,04,09,09,45,3.70
2018,04,09,09,46,4.30
2018,04,09,09,47,5.50
2018,04,09,09,48,3.50
2018,04,09,09,49,4.20
2018,04,09,09,50,2.40
2018,04,09,09,51,7.30
2018,04,09,09,52,5.60
2018,04,09,09,53,4.80
2018,04,09,09,54,5.10
2018,04,09,09,55,4.80
2018,04,09,09,56,1.40
2018,04,09,09,57,5.80
2018,04,09,09,58,7.60
2018,04,09,09,59,6.80
2018,04,09,10,00,3.80
2018,04,09,10,01,3.20
2018,04,09,10,02,5.10
2018,04,09,10,03,8.20
2018,04,09,10,04,5.80
2018,04,09,10,05,6.60
2018,04,09,10,06,5.90
2018,04,09,10,07,5.10
2018,04,09,10,08,4.60
2018,04,09,10,09,4.00
2018,04,09,10,10,2.90
2018,04,09,10,11,3.20
2018,04,09,10,12,2.70
2018,04,09,10,13,1.10
2018,04,09,10,14,6.20
2018,04,09,10,15,6.90
2018,04,09,10,16,4.60
2018,04,09,10,17,3.90
2018,04,09,10,18,3.50
2018,04,09,10,19,5.40
2018,04,09,10,20,4.50
2018,04,09,10,21,0.80
2018,04,09,10,22,3.70
2018,04,09,10,23,6.60
2018,04,09,10,24,3.80
2018,04,09,10,25,6.50
2018,04,09,10,26,4.50
2018,04,09,10,27,7.60
2018,04,09,10,28,5.50
2018,04,09,10,29,7.30
2018,04,09,10,30,10.40
2018,04,09,10,31,7.10
2018,04,09,10,32,2.70
2018,04,09,10,33,4.60
2018,04,09,10,34,4.30
2018,04,09,10,35,3.30
2018,04,09,10,36,12.40
2018,04,09,10,37,6.30
2018,04,09,10,38,9.30
2018,04,09,10,39,7.30
2018,04,09,10,40,7.90
2018,04,09,10,41,9.40
2018,04,09,10,42,6.60
2018,04,09,10,43,8.50
2018,04,09,10,44,10.80
2018,04,09,10,45,6.00
2018,04,09,10,46,11.60
2018,04,09,10,47,7.60
2018,04,09,10,48,6.70
2018,04,09,10,49,11.20
2018,04,09,10,50,6.90
2018,04,09,10,51,4.20
2018,04,09,10,52,5.10
2018,04,09,10,53,1.50
2018,04,09,10,54,9.10
2018,04,09,10,55,9.20
2018,04,09,10,56,6.90
2018,04,09,10,57,4.60
2018,04,09,10,58,5.70
2018,04,09,10,59,5.90
2018,04,09,11,00,8.90
2018,04,09,11,01,5.40
2018,04,09,11,02,4.50
2018,04,09,11,03,5.60
2018,04,09,11,04,5.90
2018,04,09,11,05,3.70
2018,04,09,11,06,5.50
2018,04,09,11,07,5.40
2018,04,09,11,08,5.30
2018,04,09,11,09,4.80
2018,04,09,11,10,6.90
2018,04,09,11,11,7.10
2018,04,09,11,12,3.00
2018,04,09,11,13,6.80
2018,04,09,11,14,8.50
2018,04,09,11,15,9.40
2018,04,09,11,16,4.30
2018,04,09,11,17,2.90
2018,04,09,11,18,11.60
2018,04,09,11,19,7.50
2018,04,09,11,20,5.90
2018,04,09,11,21,5.10
2018,04,09,11,22,1.20
2018,04,09,11,23,5.90
2018,04,09,11,24,9.80
2018,04,09,11,25,4.40
2018,04,09,11,26,3.40
2018,04,09,11,27,4.70
2018,04,09,11,28,2.90
2018,04,09,11,29,2.10
2018,04,09,11,30,3.80
2018,04,09,11,31,6.40
2018,04,09,11,32,4.40
2018,04,09,11,33,4.80
2018,04,09,11,34,4.90
2018,04,09,11,35,6.40
2018,04,09,11,36,2.80
2018,04,09,11,37,0.80
2018,04,09,11,38,1.80
2018,04,09,11,39,6.80
2018,04,09,11,40,4.00
2018,04,09,11,41,4.90
2018,04,09,11,42,2.30
2018,04,09,11,43,7.00
2018,04,09,11,44,9.60
2018,04,09,11,45,9.50
2018,04,09,11,46,4.20
2018,04,09,11,47,5.70
2018,04,09,11,48,11.00
2018,04,09,11,49,11.00
2018,04,09,11,50,4.00
2018,04,09,11,51,2.00
2018,04,09,11,52,3.60
2018,04,09,11,53,9.10
2018,04,09,11,54,11.30
2018,04,09,11,55,8.40
2018,04,09,11,56,5.30
2018,04,09,11,57,4.00
2018,04,09,11,58,4.50
2018,04,09,11,59,4.20
2018,04,09,12,00,4.70
2018,04,09,12,01,4.50
2018,04,09,12,02,6.30
2018,04,09,12,03,3.20
2018,04,09,12,04,2.70
2018,04,09,12,05,7.20
2018,04,09,12,06,6.40
2018,04,09,12,07,8.40
2018,04,09,12,08,7.70
2018,04,09,12,09,7.70
2018,04,09,12,10,8.80
2018,04,09,12,11,5.10
2018,04,09,12,12,8.00
2018,04,09,12,13,5.90
2018,04,09,12,14,5.40
2018,04,09,12,15,6.00
2018,04,09,12,16,5.10
2018,04,09,12,17,5.80
2018,04,09,12,18,3.30
2018,04,09,12,19,3.50
2018,04,09,12,20,3.10
2018,04,09,12,21,2.00
2018,04,09,12,22,1.00
2018,04,09,12,23,6.70
2018,04,09,12,24,3.90
2018,04,09,12,25,2.50
2018,04,09,12,26,2.60
2018,04,09,12,27,4.70
2018,04,09,12,28,2.90
2018,04,09,12,29,6.70
2018,04,09,12,30,0.50
2018,04,09,12,31,2.80
2018,04,09,12,32,1.90
2018,04,09,12,33,3.80
2018,04,09,12,34,4.50
2018,04,09,12,35,3.60
2018,04,09,12,36,8.50
2018,04,09,12,37,10.40
2018,04,09,12,38,4.90
2018,04,09,12,39,2.50
2018,04,09,12,40,2.20
2018,04,09,12,41,3.40
2018,04,09,12,42,1.00
2018,04,09,12,43,3.10
2018,04,09,12,44,1.50
2018,04,09,12,45,1.80
2018,04,09,12,46,3.00
2018,04,09,12,47,3.20
2018,04,09,12,48,0.70
2018,04,09,12,49,3.90
2018,04,09,12,50,0.90
2018,04,09,12,51,0.50
2018,04,09,12,52,2.40
2018,04,09,12,53,5.30
2018,04,09,12,54,4.20
2018,04,09,12,55,3.10
2018,04,09,12,56,4.70
2018,04,09,12,57,4.70
2018,04,09,12,58,4.30
2018,04,09,12,59,3.30
2018,04,09,13,00,4.50
2018,04,09,13,01,1.70
2018,04,09,13,02,3.10
2018,04,09,13,03,3.10
2018,04,09,13,04,4.80
2018,04,09,13,05,4.70
2018,04,09,13,06,7.30
2018,04,09,13,07,1.00
2018,04,09,13,08,0.20
2018,04,09,13,09,4.20
2018,04,09,13,10,3.10
2018,04,09,13,11,7.20
2018,04,09,13,12,3.00
2018,04,09,13,13,4.20
2018,04,09,13,14,5.70
2018,04,09,13,15,4.50
2018,04,09,13,16,6.40
2018,04,09,13,17,5.70
2018,04,09,13,18,10.10
2018,04,09,13,19,3.70
2018,04,09,13,20,4.10
2018,04,09,13,21,2.30
2018,04,09,13,22,2.30
2018,04,09,13,23,5.80
2018,04,09,13,24,4.90
2018,04,09,13,25,6.00
2018,04,09,13,26,2.60
2018,04,09,13,27,5.40
2018,04,09,13,28,6.40
2018,04,09,13,29,4.50
2018,04,09,13,30,7.10
2018,04,09,13,31,0.20
2018,04,09,13,32,6.30
2018,04,09,13,33,3.80
2018,04,09,13,34,2.10
2018,04,09,13,35,1.30
2018,04,09,13,36,3.50
2018,04,09,13,37,1.10
2018,04,09,13,38,6.00
2018,04,09,13,39,8.00
2018,04,09,13,40,3.50
2018,04,09,13,41,6.10
2018,04,09,13,42,7.80
2018,04,09,13,43,9.20
2018,04,09,13,44,9.30
2018,04,09,13,45,11.40
2018,04,09,13,46,3.40
2018,04,09,13,47,4.20
2018,04,09,13,48,5.60
2018,04,09,13,49,3.20
2018,04,09,13,50,4.50
2018,04,09,13,51,2.00
2018,04,09,13,52,4.30
2018,04,09,13,53,8.50
2018,04,09,13,54,3.00
2018,04,09,13,55,7.80
2018,04,09,13,56,4.60
2018,04,09,13,57,5.20
2018,04,09,13,58,6.40
2018,04,09,13,59,4.70
2018,04,09,14,00,5.60
2018,04,09,14,01,6.10
2018,04,09,14,02,7.20
2018,04,09,14,03,6.00
2018,04,09,14,04,6.50
2018,04,09,14,05,4.60
2018,04,09,14,06,6.60
2018,04,09,14,07,4.90
2018,04,09,14,08,5.50
2018,04,09,14,09,8.20
2018,04,09,14,10,5.20
2018,04,09,14,11,3.00
2018,04,09,14,12,8.30
2018,04,09,14,13,6.90
2018,04,09,14,14,6.80
2018,04,09,14,15,7.20
2018,04,09,14,16,7.80
2018,04,09,14,17,3.30
2018,04,09,14,18,2.90
2018,04,09,14,19,2.50
2018,04,09,14,20,2.30
2018,04,09,14,21,5.40
2018,04,09,14,22,5.80
2018,04,09,14,23,7.90
2018,04,09,14,24,9.10
2018,04,09,14,25,5.80
2018,04,09,14,26,8.60
2018,04,09,14,27,8.50
2018,04,09,14,28,3.50
2018,04,09,14,29,3.20
2018,04,09,14,30,6.00
2018,04,09,14,31,6.80
2018,04,09,14,32,4.40
2018,04,09,14,33,5.80
2018,04,09,14,34,7.10
2018,04,09,14,35,5.00
2018,04,09,14,36,6.00
2018,04,09,14,37,4.90
2018,04,09,14,38,4.50
2018,04,09,14,39,5.80
2018,04,09,14,40,6.70
2018,04,09,14,41,7.70
2018,04,09,14,42,8.10
2018,04,09,14,43,8.10
2018,04,09,14,44,5.80
2018,04,09,14,45,4.60
2018,04,09,14,46,7.40
2018,04,09,14,47,6.90
2018,04,09,14,48,5.00
2018,04,09,14,49,3.70
2018,04,09,14,50,4.40
2018,04,09,14,51,9.50
2018,04,09,14,52,6.40
2018,04,09,14,53,4.80
2018,04,09,14,54,9.00
2018,04,09,14,55,10.30
2018,04,09,14,56,10.40
2018,04,09,14,57,8.80
2018,04,09,14,58,3.40
2018,04,09,14,59,10.70
2018,04,09,15,00,9.30
2018,04,09,15,01,11.10
2018,04,09,15,02,10.80
2018,04,09,15,03,8.00
2018,04,09,15,04,8.00
2018,04,09,15,05,8.60
2018,04,09,15,06,7.10
2018,04,09,15,07,5.40
2018,04,09,15,08,8.80
2018,04,09,15,09,8.80
2018,04,09,15,10,9.10
2018,04,09,15,11,5.20
2018,04,09,15,12,5.80
2018,04,09,15,13,3.00
2018,04,09,15,14,5.70
2018,04,09,15,15,2.80
2018,04,09,15,16,11.00
2018,04,09,15,17,5.00
2018,04,09,15,18,6.70
2018,04,09,15,19,8.00
2018,04,09,15,20,5.90
2018,04,09,15,21,3.40
2018,04,09,15,22,4.80
2018,04,09,15,23,8.80
2018,04,09,15,24,7.80
2018,04,09,15,25,5.30
2018,04,09,15,26,4.90
2018,04,09,15,27,5.70
2018,04,09,15,28,5.70
2018,04,09,15,29,5.00
2018,04,09,15,30,6.50
2018,04,09,15,31,4.60
2018,04,09,15,32,6.40
2018,04,09,15,33,2.00
2018,04,09,15,34,3.90
2018,04,09,15,35,5.70
2018,04,09,15,36,2.40
2018,04,09,15,37,6.60
2018,04,09,15,38,7.20
2018,04,09,15,39,9.90
2018,04,09,15,40,10.30
2018,04,09,15,41,3.70
2018,04,09,15,42,5.40
2018,04,09,15,43,5.10
2018,04,09,15,44,2.40
2018,04,09,15,45,7.50
2018,04,09,15,46,13.60
2018,04,09,15,47,16.60
2018,04,09,15,48,14.90
2018,04,09,15,49,13.90
2018,04,09,15,50,10.60
2018,04,09,15,51,6.60
2018,04,09,15,52,8.60
2018,04,09,15,53,11.10
2018,04,09,15,54,12.20
2018,04,09,15,55,10.50
2018,04,09,15,56,11.60
2018,04,09,15,57,11.60
2018,04,09,15,58,11.30
2018,04,09,15,59,11.40
2018,04,09,16,00,13.10
2018,04,09,16,01,10.70
2018,04,09,16,02,12.50
2018,04,09,16,03,10.70
2018,04,09,16,04,13.40
2018,04,09,16,05,15.10
2018,04,09,16,06,12.20
2018,04,09,16,07,12.60
2018,04,09,16,08,11.20
2018,04,09,16,09,13.10
2018,04,09,16,10,13.20
2018,04,09,16,11,11.60
2018,04,09,16,12,9.90
2018,04,09,16,13,11.60
2018,04,09,16,14,12.00
2018,04,09,16,15,10.00
2018,04,09,16,16,13.00
2018,04,09,16,17,10.70
2018,04,09,16,18,10.30
2018,04,09,16,19,14.50
2018,04,09,16,20,14.40
2018,04,09,16,21,11.30
2018,04,09,16,22,14.00
2018,04,09,16,23,12.00
2018,04,09,16,24,10.80
2018,04,09,16,25,9.90
2018,04,09,16,26,8.20
2018,04,09,16,27,10.30
2018,04,09,16,28,14.50
2018,04,09,16,29,12.00
2018,04,09,16,30,10.00
2018,04,09,16,31,11.10
2018,04,09,16,32,10.80
2018,04,09,16,33,10.10
2018,04,09,16,34,9.50
2018,04,09,16,35,11.10
2018,04,09,16,36,15.00
2018,04,09,16,37,15.10
2018,04,09,16,38,14.80
2018,04,09,16,39,13.70
2018,04,09,16,40,17.50
2018,04,09,16,41,12.00
2018,04,09,16,42,14.50
2018,04,09,16,43,15.20
2018,04,09,16,44,14.50
2018,04,09,16,45,15.70
2018,04,09,16,46,15.60
2018,04,09,16,47,10.00
2018,04,09,16,48,14.10
2018,04,09,16,49,11.90
2018,04,09,16,50,9.00
2018,04,09,16,51,11.00
2018,04,09,16,52,14.00
2018,04,09,16,53,12.00
2018,04,09,16,54,9.90
2018,04,09,16,55,9.30
2018,04,09,16,56,9.60
2018,04,09,16,57,14.10
2018,04,09,16,58,12.00
2018,04,09,16,59,7.50
2018,04,09,17,00,10.40
2018,04,09,17,01,11.00
2018,04,09,17,02,11.60
2018,04,09,17,03,11.70
2018,04,09,17,04,10.60
2018,04,09,17,05,9.80
2018,04,09,17,06,3.80
2018,04,09,17,07,10.20
2018,04,09,17,08,11.70
2018,04,09,17,09,12.60
2018,04,09,17,10,14.70
2018,04,09,17,11,12.00
2018,04,09,17,12,10.30
2018,04,09,17,13,13.40
2018,04,09,17,14,12.30
2018,04,09,17,15,12.20
2018,04,09,17,16,8.90
2018,04,09,17,17,12.20
2018,04,09,17,18,9.50
2018,04,09,17,19,10.50
2018,04,09,17,20,9.20
2018,04,09,17,21,12.30
2018,04,09,17,22,18.50
2018,04,09,17,23,15.20
2018,04,09,17,24,13.80
2018,04,09,17,25,13.10
2018,04,09,17,26,9.70
2018,04,09,17,27,9.70
2018,04,09,17,28,12.20
2018,04,09,17,29,15.20
2018,04,09,17,30,16.50
2018,04,09,17,31,14.50
2018,04,09,17,32,11.20
2018,04,09,17,33,15.10
2018,04,09,17,34,14.70
2018,04,09,17,35,14.80
2018,04,09,17,36,17.00
2018,04,09,17,37,15.50
2018,04,09,17,38,13.20
2018,04,09,17,39,12.50
2018,04,09,17,40,16.50
2018,04,09,17,41,12.50
2018,04,09,17,42,14.30
2018,04,09,17,43,15.60
2018,04,09,17,44,16.40
2018,04,09,17,45,15.00
2018,04,09,17,46,13.90
2018,04,09,17,47,12.70
2018,04,09,17,48,11.90
2018,04,09,17,49,14.10
2018,04,09,17,50,7.90
2018,04,09,17,51,9.30
2018,04,09,17,52,11.60
2018,04,09,17,53,11.70
2018,04,09,17,54,9.20
2018,04,09,17,55,11.40
2018,04,09,17,56,9.50
2018,04,09,17,57,10.00
2018,04,09,17,58,6.10
2018,04,09,17,59,6.60
2018,04,09,18,00,10.30
2018,04,09,18,01,7.60
2018,04,09,18,02,9.40
2018,04,09,18,03,9.70
2018,04,09,18,04,8.10
2018,04,09,18,05,10.00
2018,04,09,18,06,7.90
2018,04,09,18,07,11.30
2018,04,09,18,08,12.80
2018,04,09,18,09,16.50
2018,04,09,18,10,13.40
2018,04,09,18,11,16.20
2018,04,09,18,12,11.60
2018,04,09,18,13,12.60
2018,04,09,18,14,17.40
2018,04,09,18,15,15.00
2018,04,09,18,16,14.70
2018,04,09,18,17,12.30
2018,04,09,18,18,12.20
2018,04,09,18,19,10.90
2018,04,09,18,20,13.50
2018,04,09,18,21,18.20
2018,04,09,18,22,13.80
2018,04,09,18,23,13.00
2018,04,09,18,24,13.20
2018,04,09,18,25,14.10
2018,04,09,18,26,14.80
2018,04,09,18,27,11.50
2018,04,09,18,28,10.00
2018,04,09,18,29,11.40
2018,04,09,18,30,10.50
2018,04,09,18,31,6.60
2018,04,09,18,32,8.60
2018,04,09,18,33,8.10
2018,04,09,18,34,9.20
2018,04,09,18,35,6.40
2018,04,09,18,36,9.40
2018,04,09,18,37,7.20
2018,04,09,18,38,9.10
2018,04,09,18,39,7.20
2018,04,09,18,40,6.10
2018,04,09,18,41,6.00
2018,04,09,18,42,11.00
2018,04,09,18,43,11.80
2018,04,09,18,44,8.90
2018,04,09,18,45,8.50
2018,04,09,18,46,9.40
2018,04,09,18,47,10.70
2018,04,09,18,48,10.00
2018,04,09,18,49,11.70
2018,04,09,18,50,6.80
2018,04,09,18,51,10.60
2018,04,09,18,52,11.30
2018,04,09,18,53,10.40
2018,04,09,18,54,8.60
2018,04,09,18,55,9.90
2018,04,09,18,56,9.80
2018,04,09,18,57,10.30
2018,04,09,18,58,9.40
2018,04,09,18,59,11.00
2018,04,09,19,00,10.60
2018,04,09,19,01,11.70
2018,04,09,19,02,10.90
2018,04,09,19,03,9.40
2018,04,09,19,04,8.20
2018,04,09,19,05,7.60
2018,04,09,19,06,5.60
2018,04,09,19,07,7.50
2018,04,09,19,08,6.80
2018,04,09,19,09,6.80
2018,04,09,19,10,6.40
2018,04,09,19,11,8.80
2018,04,09,19,12,8.90
2018,04,09,19,13,8.20
2018,04,09,19,14,7.70
2018,04,09,19,15,5.50
2018,04,09,19,16,5.50
2018,04,09,19,17,6.80
2018,04,09,19,18,7.00
2018,04,09,19,19,5.40
2018,04,09,19,20,12.60
2018,04,09,19,21,10.50
2018,04,09,19,22,6.80
2018,04,09,19,23,6.10
2018,04,09,19,24,9.10
2018,04,09,19,25,9.90
2018,04,09,19,26,9.20
2018,04,09,19,27,7.50
2018,04,09,19,28,7.10
2018,04,09,19,29,9.00
2018,04,09,19,30,6.10
2018,04,09,19,31,8.10
2018,04,09,19,32,6.70
2018,04,09,19,33,7.30
2018,04,09,19,34,6.10
2018,04,09,19,35,7.00
2018,04,09,19,36,6.30
2018,04,09,19,37,7.90
2018,04,09,19,38,10.00
2018,04,09,19,39,7.20
2018,04,09,19,40,6.00
2018,04,09,19,41,7.60
2018,04,09,19,42,6.80
2018,04,09,19,43,7.20
2018,04,09,19,44,4.20
2018,04,09,19,45,8.10
2018,04,09,19,46,6.60
2018,04,09,19,47,7.30
2018,04,09,19,48,7.10
2018,04,09,19,49,8.20
2018,04,09,19,50,10.10
2018,04,09,19,51,6.10
2018,04,09,19,52,6.40
2018,04,09,19,53,7.50
2018,04,09,19,54,8.90
2018,04,09,19,55,6.50
2018,04,09,19,56,6.80
2018,04,09,19,57,9.00
2018,04,09,19,58,4.80
2018,04,09,19,59,3.80
2018,04,09,20,00,5.20
2018,04,09,20,01,5.40
2018,04,09,20,02,6.70
2018,04,09,20,03,4.70
2018,04,09,20,04,4.90
2018,04,09,20,05,7.10
2018,04,09,20,06,10.70
2018,04,09,20,07,7.70
2018,04,09,20,08,8.90